Hourly Data Report for October 16, 2014

All times are specified in Local Standard Time (LST). Add 1 hour to adjust for Daylight Saving Time where and when it is observed.

SAINT JOHN A
NEW BRUNSWICK

45°18'58.000" N
65°53'24.000" W
108.80 m
8104901
71609
YSJ

Download Data

Hourly Data (October 2014)
Hourly Data Report for October 16, 2014
Temp Definition
°C
Dew Point Temp Definition
°C
Rel Hum Definition
%
Wind Dir Definition
10's deg

Wind Spd Definition
km/h
Visibility Definition
km
Stn Press Definition
kPa
Hmdx Definition


Wind Chill Definition


Weather Definition


TIME
00:00 Legend Double Dagger 15.1 15.1 100 18 8 0.6 100.61     Fog
01:00 Legend Double Dagger 14.8 14.8 100 18 8 0.4 100.61     Fog
02:00 Legend Double Dagger 14.8 14.8 100 18 10 0.4 100.58     Fog
03:00 Legend Double Dagger 15.0 15.0 100 18 9 0.2 100.54     Fog
04:00 Legend Double Dagger 14.7 14.7 100 20 6 0.4 100.50     Fog
05:00 Legend Double Dagger 14.7 14.7 100 18 5 0.2 100.51     Fog
06:00 Legend Double Dagger 15.1 15.1 100 13 4 0.4 100.52     Fog
07:00 Legend Double Dagger 15.4 15.4 100 21 4 0.4 100.56     Fog
08:00 Legend Double Dagger 15.3 15.3 100 15 10 0.4 100.59     Fog
09:00 Legend Double Dagger 15.7 15.7 100 13 7 0.4 100.59     Fog
10:00 Legend Double Dagger 15.9 15.9 100 18 5 0.8 100.61     Fog
11:00 Legend Double Dagger 16.6 16.6 100 16 9 0.8 100.60     Rain Showers,Fog
12:00 Legend Double Dagger 17.6 17.6 100 18 13 1.2 100.54     Fog
13:00 Legend Double Dagger 17.9 17.9 100 17 13 1.2 100.48     Fog
14:00 Legend Double Dagger 18.5 18.5 100 18 9 9.7 100.46     Fog
15:00 Legend Double Dagger 19.7 19.1 96 17 12 24.1 100.42     LegendNANA
16:00 Legend Double Dagger 19.7 18.0 90 18 16 24.1 100.41     LegendNANA
17:00 Legend Double Dagger 18.0 17.7 98 12 10 19.3 100.38     Cloudy
18:00 Legend Double Dagger 17.7 17.7 100 13 16 12.9 100.39     LegendNANA
19:00 Legend Double Dagger 17.7 17.7 100 11 19 24.1 100.35     LegendNANA
20:00 Legend Double Dagger 18.0 18.0 100 12 17 24.1 100.34     Cloudy
21:00 Legend Double Dagger 18.1 18.1 100 12 14 24.1 100.31     LegendNANA
22:00 Legend Double Dagger 18.2 18.2 100 13 18 16.1 100.26     LegendNANA
23:00 Legend Double Dagger 18.4 18.2 99 13 18 16.1 100.19     Cloudy

Notes on Data Quality.

Legend

  • E = Estimated
  • M = Missing
  • NA = Not Available
  • ‡ = Partner data that is not subject to review by the National Climate Archives
Date modified: